Regional Weather Roundup
Issued by NWS Cleveland, OH

Home | Current Version | Previous Version | Text Only | Print | Product List | Glossary Off
Versions: 1 2 3 4 5 6 7 8 9 10 11 12 13 14 15 16 17 18 19 20 21 22 23 24 25 26 27 28 29 30 31 32 33 34 35 36 37 38 39 40 41 42 43 44 45 46 47 48 49 50

000
ASUS41 KCLE 161600
RWRCLE
OHIO REGIONAL WEATHER ROUNDUP
NATIONAL WEATHER SERVICE WILMINGTON, OH
1100 AM EST MON JAN 16 2017

NOTE: "FAIR" INDICATES FEW OR NO CLOUDS BELOW 12,000 FEET WITH NO
SIGNIFICANT WEATHER AND/OR OBSTRUCTIONS TO VISIBILITY.

OHZ001>008-015>018-024>027-034-035-043-044-161700-
   NORTHWEST OHIO

CITY           SKY/WX    TMP DP  RH WIND       PRES   REMARKS
DEFIANCE       CLOUDY    34  29  82 E6        30.31S HAZE    WCI  29
FINDLAY        CLOUDY    36  30  79 E6        30.30S HAZE
TOLEDO EXPRESS CLOUDY    32  29  88 E6        30.32S FOG     WCI  26
TOLEDO EXEC    CLOUDY    34  29  82 CALM      30.34S HAZE
LIMA           LGT RAIN  36  34  92 SE5       30.28S FOG
$$

OHZ009>014-019>023-028>033-038-089-161700-
   NORTHEAST OHIO

CITY           SKY/WX    TMP DP  RH WIND       PRES   REMARKS
CLE-HOPKINS    CLOUDY    36  27  69 SE6       30.36F
CLE-LAKEFRONT  CLOUDY    34  26  72 CALM      30.34F
CUY CO. ARPT   CLOUDY    36  25  64 SE6       30.35F
LORAIN-ELYRIA  CLOUDY    32  26  78 S5        30.35S HAZE    WCI  27
ASHTABULA      CLOUDY    30  25  81 SE3       30.36
AKRON-CANTON   CLOUDY    34  25  69 S5        30.34R HAZE    WCI  30
WOOSTER        NOT AVBL
MANSFIELD      CLOUDY    36  31  82 SE10      30.29F
YOUNGSTOWN     CLOUDY    31  22  69 E6        30.34S WCI  25
$$

OHZ042-051>053-060>062-070>072-077>081-161700-
  SOUTHWEST OHIO

CITY           SKY/WX    TMP DP  RH WIND       PRES   REMARKS
CINC-COVINGTON CLOUDY    43  41  93 SE6       30.27F FOG
CINC-LUNKEN    CLOUDY    43  42  97 CALM      30.31S FOG
HAMILTON       CLOUDY    43  41  93 CALM      30.31R FOG
DAYTON         NOT AVBL
WRIGHT-PAT AFB NOT AVBL
DAYTON GENERAL CLOUDY    42  40  92 S8        30.28S FOG
WILMINGTON     CLOUDY    42  41  96 SE8       30.28S
$$

OHZ036-037-039>041-045>050-054>059-063>069-073>076-082>088-161700-
  CENTRAL AND SOUTHEAST OHIO

CITY           SKY/WX    TMP DP  RH WIND       PRES   REMARKS
COLUMBUS       CLOUDY    41  34  76 SE6       30.31F
OSU AIRPORT    CLOUDY    39  35  86 SE8       30.30F FOG
BOLTON FIELD   RAIN      37  36  93 SE6       30.31F
RICKENBACK AFB NOT AVBL
NEWARK         CLOUDY    36  30  79 NE3       30.32S
MARION         CLOUDY    36  31  82 S6        30.31S HAZE
LANCASTER      CLOUDY    41  36  82 SE7       30.32F
ZANESVILLE     CLOUDY    36  32  85 CALM      30.33S
NEW PHILLY     CLOUDY    34  27  75 CALM      30.35S
$$



USA.gov is the U.S. government's official web portal to all federal, state and local government web resources and services.